Location: Azalea Creek
(37.1280°N, 119.2623°W)
Time: 00:50:02
(UTC+00:00)

STARLINK-57 - Pass Details

Date: 17 February 2020
Orbit: 529 x 530 km, 53.0° (Epoch: 04 April)

Event Time Altitude Azimuth Distance (km) Brightness Sun altitude
Rises 03:11:54 0° 229° (SW) 2,654 7.9 -19.4°
Reaches altitude 10° 03:14:06 10° 231° (SW) 1,769 6.9 -19.8°
Maximum altitude 03:18:07 78° 317° (NW) 546 3.6 -20.6°
Enters shadow 03:19:00 52° 31° (NNE) 663 3.7 -20.8°
